"Pseudo-MPEC" for P1189pL

Created 2020 Oct 21 0:07:33 UT using Find_Orb

Click here for an explanation of pseudo-MPECs

 
 Astrometry: 
     P1189pL  C2020 10 16?kS#Cm*@4Hs?B5e)FHRdM/[xQ4OUQvuB)Rfw]Astrometry`1_4PF51
     P1189pL  C2020 10 16'#odI13O`e0^xgL*cGLFSlC6-.uredacted;Aclick_Wx.AG@.#IF51
     P1189pL  C2020 10 16nhZ,_2M1j2C7ei4VvC+hereq(boj*=d8t4acHGHZO3Q?EN00=E@:F51
     P1189pL  C2020 10 16hLeJ4[:rR%eL9ia'kuV$P#T`hr_.fMZQwIflArK`ydfh%n4T$8[TF51
     P1189pL  C2020 10 17p5o^aTFMfor\'YYPy%KLP2KnxmMF'(%t=3j,((n]NusUT,_.2eZbF51
     P1189pL  C2020 10 17w+1Ox^PZfUT]hDjK^bTY[dhgIvy4Ve;Mom1EMRT'5B%Ym+=U:Q6$F51
     P1189pL  C2020 10 17sX'oWp%M5tT*g@Oor)PaVAM;8)/Cs3+oeceDjE+`e4U7r+xx;sK1F51
     P1189pL ^C2020 10 19.37922302 25 46.645-15 20 37.55   ~AKNM 21.97GVNEOCP568
     P1189pL ^C2020 10 19.38016902 25 46.575-15 20 38.17   ~AKNM 21.98GVNEOCP568
     P1189pL ^C2020 10 19.38111802 25 46.500-15 20 38.65   ~AKNM 21.96GVNEOCP568
     P1189pL  C2020 10 20f.@/\.g#k*BjuBb@'_p1vh=Nf27whQ\WI)#.KexplanationG)G/F51
     P1189pL  C2020 10 20#)2byC8g:fS'hD$0xvbZs^_vldCO2-,osHnp`[eLhlo2J%1!gEW;F51
     P1189pL  C2020 10 20]=7)'5Xmvdbo2VeLk*SYvHF!M1oVYd:P!C2jV%ftB5aRU3D_f#64F51

Station data:
(568) Mauna Kea  (N19.826116 W155.472200)  US/Hawaii.
(F51) Pan-STARRS 1, Haleakala  (N20.707235 W156.255910)  US/Hawaii.
   Observers N. Primak, A. Schultz, S. Watters, J. Thiel, T. Goggia. Measurer
   PS1 Science Consortium. 1.8-m Ritchey-Chrétien + CCD.

Orbital elements:  P1189pL
   Perihelion 2020 Jul 3.847818 +/- 0.357 TT = 20:20:51 (JD 2459034.347818)
Epoch 2020 Oct 20.0 TT = JDT 2459142.5   Earth MOID: 0.2179   Ma: 0.0978
M  44.13943541 +/- 0.28             (J2000 ecliptic)          AutoNEOCP
n   0.40812339 +/- 0.00288          Peri.  153.84465 +/- 0.25
a   1.80001057 +/- 0.00847          Node   155.87442 +/- 0.16
e   0.3245141 +/- 0.00373           Incl.   12.73713 +/- 0.07
P   2.41/882.07d           H 22.0   G  0.15   U  8.8  
q 1.21588172 +/- 0.00201    Q 2.38413942 +/- 0.0177
From 13 observations 2020 Oct. 16-20; mean residual 0".06
Residuals in arcseconds: 
201016 F51  .06-  .04-    201017 F51  .06+  .01-    201020 F51  .02+  .04-    
201016 F51  .13+  .01-    201017 F51  .04+  .01+    201020 F51  .01-  .00     
201016 F51  .07+  .02-    201019 568  .01+  .03-    201020 F51  .01+  .06+    
201016 F51  .18-  .05+    201019 568  .00   .06-    
201017 F51  .01-  .05+    201019 568  .07-  .05+    

Ephemerides (geocentric):
Date (UTC) HH   RA              Dec         delta   r     elong  mag " sig PA
---- -- -- --  -------------   -----------  ------ ------ -----  --- ---- ---
2020 10 21 00  02 23 56.714   -15 36 01.93  .56241 1.5148 151.8 22.6 .376 151
2020 10 21 01  02 23 53.903   -15 36 24.34  .56262 1.5150 151.8 22.6 .392 151
2020 10 21 02  02 23 51.093   -15 36 46.67  .56282 1.5152 151.8 22.6 .408 151
2020 10 21 03  02 23 48.283   -15 37 08.92  .56303 1.5153 151.8 22.6 .424 151
2020 10 21 04  02 23 45.473   -15 37 31.09  .56324 1.5155 151.8 22.6 .441 151
2020 10 21 05  02 23 42.664   -15 37 53.19  .56345 1.5157 151.8 22.6 .457 151
2020 10 21 06  02 23 39.855   -15 38 15.20  .56365 1.5159 151.8 22.6 .474 151
2020 10 21 07  02 23 37.046   -15 38 37.14  .56386 1.5161 151.8 22.6 .492 151
2020 10 21 08  02 23 34.238   -15 38 58.99  .56407 1.5162 151.8 22.6 .509 151
2020 10 21 09  02 23 31.430   -15 39 20.77  .56428 1.5164 151.8 22.6 .527 151
2020 10 21 10  02 23 28.622   -15 39 42.47  .56449 1.5166 151.8 22.6 .545 152
2020 10 21 11  02 23 25.815   -15 40 04.09  .56469 1.5168 151.8 22.6 .563 152
2020 10 21 12  02 23 23.009   -15 40 25.63  .56490 1.5170 151.8 22.6 .581 152
2020 10 21 13  02 23 20.203   -15 40 47.09  .56511 1.5171 151.8 22.6 .600 152
2020 10 21 14  02 23 17.397   -15 41 08.48  .56532 1.5173 151.8 22.6 .619 152
2020 10 21 15  02 23 14.592   -15 41 29.78  .56553 1.5175 151.8 22.6 .638 152
2020 10 21 16  02 23 11.787   -15 41 51.00  .56574 1.5177 151.8 22.6 .657 152
2020 10 21 17  02 23 08.983   -15 42 12.15  .56595 1.5179 151.8 22.6 .677 152
2020 10 21 18  02 23 06.179   -15 42 33.22  .56617 1.5180 151.8 22.6 .697 152
2020 10 21 19  02 23 03.375   -15 42 54.21  .56638 1.5182 151.8 22.6 .717 152
2020 10 21 20  02 23 00.573   -15 43 15.11  .56659 1.5184 151.8 22.6 .737 152
2020 10 21 21  02 22 57.770   -15 43 35.94  .56680 1.5186 151.8 22.6 .758 152
2020 10 21 22  02 22 54.969   -15 43 56.70  .56701 1.5188 151.8 22.6 .779 152
2020 10 21 23  02 22 52.167   -15 44 17.37  .56722 1.5189 151.8 22.6 .800 153
2020 10 22 00  02 22 49.367   -15 44 37.96  .56744 1.5191 151.8 22.6 .821 153
2020 10 22 01  02 22 46.567   -15 44 58.48  .56765 1.5193 151.8 22.6 .842 153
2020 10 22 02  02 22 43.767   -15 45 18.91  .56786 1.5195 151.8 22.6 .864 153
2020 10 22 03  02 22 40.968   -15 45 39.27  .56808 1.5197 151.8 22.6 .886 153
2020 10 22 04  02 22 38.170   -15 45 59.55  .56829 1.5198 151.8 22.6 .908 153
2020 10 22 05  02 22 35.372   -15 46 19.75  .56850 1.5200 151.8 22.6 .931 153
2020 10 22 06  02 22 32.575   -15 46 39.87  .56872 1.5202 151.8 22.6 .953 153
2020 10 22 07  02 22 29.779   -15 46 59.91  .56893 1.5204 151.8 22.6 .976 153
2020 10 22 08  02 22 26.983   -15 47 19.88  .56915 1.5206 151.8 22.6 1.00 153
2020 10 22 09  02 22 24.188   -15 47 39.76  .56936 1.5207 151.8 22.6 1.02 153
2020 10 22 10  02 22 21.393   -15 47 59.57  .56958 1.5209 151.7 22.6 1.05 153
2020 10 22 11  02 22 18.599   -15 48 19.30  .56979 1.5211 151.7 22.6 1.07 153
2020 10 22 12  02 22 15.806   -15 48 38.95  .57001 1.5213 151.7 22.6 1.09 153
2020 10 22 13  02 22 13.014   -15 48 58.52  .57022 1.5215 151.7 22.6 1.12 154
2020 10 22 14  02 22 10.222   -15 49 18.01  .57044 1.5216 151.7 22.6 1.14 154
2020 10 22 15  02 22 07.431   -15 49 37.42  .57066 1.5218 151.7 22.7 1.17 154
2020 10 22 16  02 22 04.641   -15 49 56.76  .57087 1.5220 151.7 22.7 1.19 154
2020 10 22 17  02 22 01.851   -15 50 16.01  .57109 1.5222 151.7 22.7 1.22 154
2020 10 22 18  02 21 59.062   -15 50 35.19  .57131 1.5224 151.7 22.7 1.24 154
2020 10 22 19  02 21 56.274   -15 50 54.29  .57153 1.5225 151.7 22.7 1.27 154
2020 10 22 20  02 21 53.487   -15 51 13.31  .57175 1.5227 151.7 22.7 1.30 154
2020 10 22 21  02 21 50.700   -15 51 32.25  .57196 1.5229 151.7 22.7 1.32 154
2020 10 22 22  02 21 47.915   -15 51 51.12  .57218 1.5231 151.7 22.7 1.35 154
2020 10 22 23  02 21 45.130   -15 52 09.90  .57240 1.5233 151.7 22.7 1.37 154